Regional Weather Roundup
Issued by NWS

Home | Current Version | Previous Version | Graphics & Text | Print | Product List | Glossary On
Versions: 1 2 3 4 5 6 7 8 9 10 11 12 13 14 15 16 17 18 19 20 21 22 23 24 25 26 27 28 29 30 31 32 33 34 35 36 37 38 39 40 41 42 43 44 45 46 47 48 49 50
000
ASUS43 KFSD 182210
RWRSD

WEATHER ROUNDUP FOR SOUTH DAKOTA
NATIONAL WEATHER SERVICE SIOUX FALLS SD
500 PM CDT FRI AUG 18 2017

NOTE: "FAIR" INDICATES FEW OR NO CLOUDS BELOW 12,000 FEET WITH NO
SIGNIFICANT WEATHER AND/OR OBSTRUCTIONS TO VISIBILITY.


SDZ001>005-009-010-012>017-182300-
NORTHWEST AND NORTH CENTRAL SOUTH DAKOTA

CITY           SKY/WX    TMP DP  RH WIND       PRES   REMARKS
BUFFALO          N/A     86  43  22 N6        29.91F
FAITH            N/A     85  44  23 VRB6      29.96F
MOBRIDGE       SUNNY     82  57  42 N5        29.92F
$$

SDZ012>016-024>037-041>051-057-063-072>074-182300-
SOUTHWEST AND SOUTH CENTRAL SOUTH DAKOTA

CITY           SKY/WX    TMP DP  RH WIND       PRES   REMARKS
RAPID CTY ARPT SUNNY     84  40  21 E6G15     30.00F
PIERRE         SUNNY     82  50  32 N10G20    29.94S
CUSTER         MOSUNNY   79  35  20 W8        30.15F
ELLSWORTH AFB  SUNNY     85  42  22 CALM      30.00F
PHILIP         SUNNY     89  42  19 NE5G21    29.95F
PINE RIDGE     SUNNY     88  44  21 CALM      30.01F
SPEARFISH      LGT RAIN  84  41  21 CALM      30.04F
WINNER         FAIR      84  54  35 N12G20    29.97S
$$

SDZ004>011-016>023-039-040-182300-
NORTHEAST SOUTH DAKOTA

CITY           SKY/WX    TMP DP  RH WIND       PRES   REMARKS
ABERDEEN       SUNNY     77  58  51 N15       29.91S
WATERTOWN      CLOUDY    68  61  78 N15       29.88R
BROOKINGS      MOSUNNY   76  63  64 W17       29.86F
SISSETON         N/A     72  62  71 N9        29.88S
$$

SDZ017-020-022-023-036>040-048>070-182300-
SOUTHEAST SOUTH DAKOTA

CITY           SKY/WX    TMP DP  RH WIND       PRES   REMARKS
SIOUX FALLS    PTSUNNY   79  66  64 VRB6      29.88F
HURON          SUNNY     77  61  57 NW18      29.90S
CHAMBERLAIN    SUNNY     83  60  46 N13       29.94S
MITCHELL       SUNNY     79  61  53 N16       29.91R
YANKTON        SUNNY     82  65  56 W10       29.89F
$$

ABBREVIATIONS USED IN REMARKS
   TC - TEMPERATURE IN CELSIUS
  WCI - WIND CHILL INDEX
   HX - HEAT INDEX
  VSB - VISIBILITY





USA.gov is the U.S. government's official web portal to all federal, state and local government web resources and services.